FW7184 Weather Reports


time (UTC)temp
C
wind
direction
speed
KPH
gust
KPH
rain 1hr
cm
rain 24hr
cm
rain mn
cm
humidity
%
barometer
mb
20260506044649 18 131 0.0 0.0 0.00 0.00 0.00 70 1010.4
20260506044145 18 127 0.0 0.0 0.00 0.00 0.00 70 1010.6
20260506043643 18 127 0.0 0.0 0.00 0.00 0.00 70 1010.6
20260506043141 18 130 0.0 0.0 0.00 0.00 0.00 71 1010.5
20260506042640 18 136 0.0 0.0 0.00 0.00 0.00 70 1010.5
20260506042137 18 123 0.0 0.0 0.00 0.00 0.00 70 1010.5
20260506041635 18 135 0.0 0.0 0.00 0.00 0.00 70 1010.5
20260506041132 18 138 0.0 0.0 0.00 0.00 0.00 70 1010.6
20260506040629 18 129 1.6 1.6 0.00 0.00 0.00 68 1010.3
20260506040126 18 123 0.0 0.0 0.00 0.00 0.00 69 1010.3
20260506035623 18 129 0.0 0.0 0.00 0.03 0.03 68 1010.4
20260506035119 18 102 0.0 1.6 0.00 0.03 0.03 68 1010.5
20260506034617 18 137 0.0 0.0 0.00 0.03 0.03 68 1010.5
20260506034114 18 89 1.6 1.6 0.00 0.03 0.03 67 1010.4
20260506033611 19 121 0.0 0.0 0.00 0.03 0.03 67 1010.4
20260506033108 19 118 0.0 1.6 0.00 0.03 0.03 68 1010.4
20260506032605 19 113 1.6 1.6 0.00 0.03 0.03 68 1010.4
20260506032102 19 35 1.6 3.2 0.00 0.03 0.03 68 1010.4
20260506031559 18 115 0.0 1.6 0.00 0.03 0.03 68 1010.3
20260506031056 18 116 0.0 0.0 0.00 0.03 0.03 68 1010.1
20260506030555 18 124 0.0 0.0 0.00 0.03 0.03 68 1010.2
20260506030051 18 121 0.0 1.6 0.00 0.03 0.03 68 1010.3
20260506025548 18 117 0.0 0.0 0.00 0.03 0.03 69 1010.2
20260506025044 18 126 0.0 0.0 0.00 0.03 0.03 69 1010.0
20260506024541 18 104 0.0 1.6 0.00 0.03 0.03 69 1010.1
20260506024038 18 129 0.0 0.0 0.00 0.03 0.03 69 1010.3
20260506023534 18 144 0.0 1.6 0.00 0.03 0.03 68 1010.3
20260506023032 18 129 0.0 0.0 0.00 0.03 0.03 68 1010.1
20260506022529 18 140 1.6 1.6 0.00 0.03 0.03 67 1010.1
20260506022026 18 138 0.0 0.0 0.00 0.03 0.03 68 1010.5
20260506021524 18 137 0.0 0.0 0.00 0.03 0.03 67 1010.2
20260506021021 18 125 0.0 0.0 0.00 0.03 0.03 68 1010.2
20260506020518 18 119 0.0 0.0 0.00 0.03 0.03 68 1010.1
20260506020016 18 131 0.0 1.6 0.00 0.03 0.03 68 1010.2
20260506015513 18 124 0.0 0.0 0.00 0.03 0.03 68 1009.9
20260506015010 18 124 0.0 0.0 0.00 0.03 0.03 68 1010.2
20260506014507 18 128 0.0 1.6 0.00 0.03 0.03 67 1010.2
20260506014003 18 129 0.0 0.0 0.00 0.03 0.03 68 1010.0
20260506013501 18 138 0.0 0.0 0.00 0.03 0.03 68 1009.6
20260506012957 18 136 0.0 0.0 0.00 0.03 0.03 68 1009.8
20260506012453 18 135 0.0 0.0 0.00 0.03 0.03 66 1009.6
20260506011951 19 144 1.6 3.2 0.00 0.03 0.03 66 1009.6
20260506011448 19 136 0.0 0.0 0.00 0.03 0.03 65 1009.6
20260506010944 20 94 1.6 3.2 0.00 0.03 0.03 63 1009.5
20260506010444 20 134 0.0 0.0 0.00 0.03 0.03 62 1009.3
20260506005939 20 128 0.0 0.0 0.00 0.03 0.03 61 1009.4
20260506005437 20 112 0.0 1.6 0.00 0.03 0.03 60 1009.4
20260506004932 21 117 0.0 0.0 0.00 0.03 0.03 59 1009.3
20260506004431 21 136 0.0 0.0 0.00 0.03 0.03 57 1009.0
20260506003926 21 128 0.0 0.0 0.00 0.03 0.03 55 1009.0
20260506003423 22 127 0.0 0.0 0.00 0.03 0.03 52 1009.0
20260506002919 23 144 0.0 0.0 0.00 0.03 0.03 47 1009.1
20260506002416 23 118 0.0 0.0 0.00 0.03 0.03 42 1008.8
20260506001911 23 127 0.0 0.0 0.00 0.03 0.03 41 1008.8
20260506001408 23 135 0.0 0.0 0.00 0.03 0.03 40 1008.9
20260506000905 23 107 0.0 1.6 0.00 0.03 0.03 41 1008.8
20260506000403 24 117 1.6 1.6 0.00 0.03 0.03 40 1008.3
20260505235859 24 109 1.6 1.6 0.00 0.03 0.03 39 1008.7
20260505235358 25 112 0.0 1.6 0.00 0.03 0.03 38 1008.7
20260505234854 25 135 0.0 1.6 0.00 0.03 0.03 37 1008.6
20260505234352 25 218 1.6 3.2 0.00 0.03 0.03 37 1008.4
20260505233848 25 133 0.0 0.0 0.00 0.03 0.03 37 1008.5
20260505233346 25 125 0.0 0.0 0.00 0.03 0.03 37 1008.2
20260505232844 25 135 0.0 0.0 0.00 0.03 0.03 36 1008.3
20260505232341 25 145 1.6 3.2 0.00 0.03 0.03 36 1008.0
20260505231838 25 131 0.0 1.6 0.00 0.03 0.03 36 1008.3
20260505231335 25 99 6.4 9.7 0.00 0.03 0.03 36 1008.1
20260505230833 25 97 1.6 1.6 0.00 0.03 0.03 36 1008.0
20260505230330 25 129 3.2 3.2 0.00 0.03 0.03 36 1007.8
20260505225827 26 139 1.6 1.6 0.00 0.03 0.03 36 1007.9
20260505225325 25 163 1.6 1.6 0.00 0.03 0.03 35 1007.7
20260505224819 26 27 1.6 8.0 0.00 0.03 0.03 35 1007.5
20260505224317 25 131 1.6 3.2 0.00 0.03 0.03 36 1007.5
20260505223814 26 128 0.0 1.6 0.00 0.03 0.03 36 1007.4
20260505223311 26 137 1.6 1.6 0.00 0.03 0.03 38 1007.4
20260505222807 26 324 3.2 3.2 0.00 0.03 0.03 37 1007.6
20260505222305 26 125 0.0 1.6 0.00 0.03 0.03 36 1007.5
20260505221800 26 145 1.6 1.6 0.00 0.03 0.03 36 1007.6
20260505221257 26 119 0.0 1.6 0.00 0.03 0.03 36 1007.4
20260505220754 26 130 1.6 3.2 0.00 0.03 0.03 36 1007.7
20260505220251 26 165 1.6 4.8 0.00 0.03 0.03 36 1007.7
20260505215749 26 202 4.8 8.0 0.00 0.03 0.03 35 1007.5
20260505215247 26 40 4.8 8.0 0.00 0.03 0.03 37 1007.6
20260505214744 26 68 1.6 3.2 0.00 0.03 0.03 38 1007.5
20260505214241 26 133 3.2 3.2 0.00 0.03 0.03 37 1007.4
20260505213738 26 183 1.6 3.2 0.00 0.03 0.03 37 1007.5
20260505213236 26 111 1.6 3.2 0.00 0.03 0.03 38 1007.2
20260505212732 25 140 1.6 1.6 0.00 0.03 0.03 39 1007.2
20260505212229 25 142 1.6 3.2 0.00 0.03 0.03 40 1007.1
20260505211726 25 193 1.6 1.6 0.00 0.03 0.03 46 1007.1
20260505211224 25 132 1.6 1.6 0.00 0.03 0.03 45 1007.2
20260505210719 26 124 1.6 1.6 0.00 0.03 0.03 43 1007.4
20260505210217 26 84 3.2 4.8 0.00 0.03 0.03 40 1007.2
20260505205714 26 84 4.8 9.7 0.00 0.03 0.03 39 1006.8
20260505205212 26 75 1.6 1.6 0.00 0.03 0.03 40 1007.0
20260505204708 25 146 3.2 3.2 0.00 0.03 0.03 44 1006.9
20260505204207 25 146 1.6 3.2 0.00 0.03 0.03 50 1006.9
20260505203704 25 130 0.0 0.0 0.00 0.03 0.03 51 1007.2
20260505203200 26 125 0.0 0.0 0.00 0.03 0.03 50 1007.1
20260505202656 26 139 1.6 1.6 0.00 0.03 0.03 50 1007.5
20260505202152 25 130 0.0 1.6 0.00 0.03 0.03 49 1007.4
20260505201648 26 96 0.0 1.6 0.00 0.03 0.03 49 1007.2
20260505201147 26 117 0.0 0.0 0.00 0.03 0.03 51 1007.3
20260505200645 26 118 0.0 1.6 0.00 0.03 0.03 49 1007.4
20260505200141 26 150 3.2 3.2 0.00 0.03 0.03 51 1007.5
20260505195637 26 139 1.6 3.2 0.00 0.03 0.03 49 1007.7
20260505195134 25 126 0.0 1.6 0.00 0.03 0.03 50 1007.7
20260505194632 25 100 0.0 0.0 0.00 0.03 0.03 50 1007.9
20260505194127 26 180 1.6 3.2 0.00 0.03 0.03 49 1007.8
20260505193624 26 155 3.2 3.2 0.00 0.03 0.03 46 1007.9
20260505193121 27 130 1.6 1.6 0.00 0.03 0.03 46 1007.8
20260505192620 27 118 1.6 1.6 0.00 0.03 0.03 46 1007.9
20260505192117 27 41 1.6 1.6 0.00 0.03 0.03 46 1007.8
20260505191616 27 106 0.0 0.0 0.00 0.03 0.03 46 1007.9
20260505191113 27 118 3.2 8.0 0.00 0.03 0.03 45 1008.0
20260505190608 26 109 3.2 3.2 0.00 0.03 0.03 45 1008.3
20260505190104 26 131 1.6 3.2 0.00 0.03 0.03 46 1008.0
20260505185601 26 194 1.6 1.6 0.00 0.03 0.03 46 1008.3
20260505185057 27 154 1.6 1.6 0.00 0.03 0.03 46 1008.5
20260505184554 27 102 0.0 1.6 0.00 0.03 0.03 48 1008.6
20260505184051 27 119 1.6 4.8 0.00 0.03 0.03 47 1008.5
20260505183547 26 138 1.6 3.2 0.00 0.03 0.03 44 1008.7
20260505183045 27 130 1.6 1.6 0.00 0.03 0.03 44 1008.7
20260505182535 27 148 0.0 1.6 0.00 0.03 0.03 44 1008.6
20260505182032 27 131 1.6 1.6 0.00 0.03 0.03 47 1008.9
20260505181528 27 142 1.6 3.2 0.00 0.03 0.03 45 1008.5
20260505181026 26 172 3.2 3.2 0.00 0.03 0.03 43 1008.6
20260505180522 27 129 1.6 3.2 0.00 0.03 0.03 45 1008.9
20260505180021 27 114 0.0 0.0 0.00 0.03 0.03 46 1009.1
20260505175520 27 50 1.6 3.2 0.00 0.03 0.03 46 1009.0
20260505175017 27 183 3.2 3.2 0.00 0.03 0.03 44 1008.8
20260505174514 27 157 1.6 3.2 0.00 0.03 0.03 44 1008.8
20260505174010 27 125 1.6 1.6 0.00 0.03 0.03 46 1009.0
20260505173507 26 142 0.0 1.6 0.00 0.03 0.03 46 1008.9
20260505173004 26 50 3.2 4.8 0.00 0.03 0.03 47 1009.1
20260505172503 26 102 3.2 4.8 0.00 0.03 0.03 46 1009.4
20260505172002 26 79 0.0 1.6 0.00 0.03 0.03 47 1009.1
20260505171453 26 62 1.6 4.8 0.00 0.03 0.03 46 1009.2
20260505170950 27 168 1.6 3.2 0.00 0.03 0.03 46 1009.2
20260505170447 26 135 0.0 1.6 0.00 0.03 0.03 48 1009.4
20260505165942 26 53 3.2 4.8 0.00 0.03 0.03 47 1009.2
20260505165438 26 128 0.0 0.0 0.00 0.03 0.03 47 1009.7
20260505164933 26 139 1.6 3.2 0.00 0.03 0.03 46 1009.6
20260505164430 26 126 1.6 3.2 0.00 0.03 0.03 48 1009.7
20260505163928 25 153 3.2 3.2 0.00 0.03 0.03 48 1009.7
20260505163421 25 104 0.0 1.6 0.00 0.03 0.03 47 1009.9
20260505162920 25 165 1.6 1.6 0.00 0.03 0.03 47 1010.2
20260505162415 25 93 1.6 3.2 0.00 0.03 0.03 47 1009.9
20260505161912 25 158 1.6 1.6 0.00 0.03 0.03 48 1010.2
20260505161409 25 140 3.2 3.2 0.00 0.03 0.03 48 1010.1
20260505160907 25 138 1.6 1.6 0.00 0.03 0.03 49 1010.3
20260505160405 25 329 4.8 4.8 0.00 0.03 0.03 49 1010.3
20260505153343 24 123 0.0 1.6 0.00 0.03 0.03 52 1010.5
20260505152840 24 113 3.2 4.8 0.00 0.03 0.03 51 1010.5
20260505152338 24 107 0.0 1.6 0.00 0.03 0.03 53 1010.7
20260505151837 23 131 0.0 0.0 0.00 0.03 0.03 51 1010.5
20260505151334 23 199 1.6 3.2 0.00 0.03 0.03 52 1010.8
20260505150831 23 173 3.2 3.2 0.00 0.03 0.03 54 1010.7
20260505150328 23 129 0.0 0.0 0.00 0.03 0.03 53 1010.8
20260505140252 20 118 0.0 0.0 0.00 0.03 0.03 65 1011.3
20260505130216 17 133 0.0 0.0 0.00 0.03 0.03 73 1010.7
20260505124706 16 127 0.0 0.0 0.00 0.03 0.03 77 1011.0
20260505124203 16 106 0.0 1.6 0.00 0.03 0.03 79 1011.0
20260505123659 15 123 0.0 1.6 0.00 0.03 0.03 81 1010.9
20260505123156 15 122 0.0 1.6 0.00 0.03 0.03 83 1011.2
20260505122653 13 136 0.0 0.0 0.00 0.03 0.03 89 1011.0
20260505122150 13 127 0.0 0.0 0.00 0.03 0.03 92 1011.2
20260505121646 13 134 0.0 0.0 0.00 0.03 0.03 93 1010.9
20260505121143 13 134 0.0 0.0 0.00 0.03 0.03 93 1010.9
20260505120639 13 140 0.0 0.0 0.00 0.03 0.03 94 1010.7
20260505120136 13 130 0.0 0.0 0.00 0.03 0.03 93 1010.5
20260505115629 13 150 1.6 1.6 0.00 0.03 0.03 91 1010.4
20260505115127 13 141 1.6 1.6 0.00 0.03 0.03 88 1010.5
20260505114624 13 127 0.0 0.0 0.18 0.03 0.03 88 1011.0
20260505114120 13 126 0.0 1.6 0.00 0.00 0.00 84 1011.5
20260505113617 13 126 0.0 0.0 0.00 0.00 0.00 84 1011.3
20260505113114 14 132 0.0 0.0 0.00 0.00 0.00 82 1011.8
20260505112610 13 136 0.0 0.0 0.00 0.00 0.00 81 1011.8
20260505112108 13 134 0.0 0.0 0.00 0.00 0.00 81 1011.2
20260505111602 13 130 0.0 0.0 0.00 0.00 0.00 83 1011.3
20260505111058 13 134 0.0 0.0 0.00 0.00 0.00 84 1011.5
20260505110554 12 129 0.0 0.0 0.00 0.00 0.00 85 1011.3
20260505102021 10 136 0.0 0.0 0.00 0.00 0.00 91 1010.9
20260505101520 10 138 0.0 0.0 0.00 0.00 0.00 91 1011.1
20260505101015 10 133 0.0 0.0 0.00 0.00 0.00 91 1010.8
20260505100513 11 137 0.0 0.0 0.00 0.00 0.00 91 1010.8
20260505100010 11 132 0.0 0.0 0.00 0.00 0.00 91 1010.6
20260505095506 10 145 0.0 0.0 0.00 0.00 0.00 90 1010.6
20260505095002 10 137 0.0 0.0 0.00 0.00 0.00 90 1010.4
20260505094459 10 136 0.0 0.0 0.00 0.00 0.00 90 1010.3
20260505093955 11 138 0.0 0.0 0.00 0.00 0.00 90 1010.1
20260505093452 11 138 0.0 0.0 0.00 0.00 0.00 90 1010.2
20260505092949 11 143 0.0 0.0 0.00 0.00 0.00 89 1010.2
20260505092446 11 137 0.0 0.0 0.00 0.00 0.00 89 1010.3
20260505091944 11 137 0.0 0.0 0.00 0.00 0.00 89 1010.2
20260505091441 11 136 0.0 0.0 0.00 0.00 0.00 89 1010.2
20260505090939 11 138 0.0 0.0 0.00 0.00 0.00 88 1010.1
20260505090437 11 144 0.0 0.0 0.00 0.00 0.00 88 1010.1
20260505085934 11 125 0.0 0.0 0.00 0.00 0.00 88 1010.2
20260505085432 11 138 0.0 0.0 0.00 0.00 0.00 89 1010.1
20260505084930 11 141 0.0 0.0 0.00 0.00 0.00 89 1010.3
20260505084428 10 134 0.0 0.0 0.00 0.00 0.00 88 1010.0
20260505083926 11 135 0.0 0.0 0.00 0.00 0.00 88 1010.1
20260505083423 11 136 0.0 0.0 0.00 0.00 0.00 88 1010.3
20260505082919 11 134 0.0 0.0 0.00 0.00 0.00 87 1010.2
20260505082415 11 134 0.0 0.0 0.00 0.00 0.00 87 1010.2
20260505081912 11 134 0.0 0.0 0.00 0.00 0.00 87 1010.1
20260505081409 11 141 0.0 0.0 0.00 0.00 0.00 87 1010.4
20260505080905 11 136 0.0 0.0 0.00 0.00 0.00 86 1010.2
20260505080401 11 133 0.0 0.0 0.00 0.00 0.00 86 1010.3
20260505075857 11 131 0.0 0.0 0.00 0.00 0.00 86 1010.4
20260505075354 11 148 0.0 0.0 0.00 0.00 0.00 86 1010.3
20260505074851 11 148 0.0 0.0 0.00 0.00 0.00 86 1010.3
20260505074348 11 148 0.0 0.0 0.00 0.00 0.00 86 1010.4
20260505073846 11 148 0.0 0.0 0.00 0.00 0.00 85 1010.5
20260505073343 11 148 0.0 0.0 0.00 0.00 0.00 85 1010.2
20260505072840 11 149 0.0 0.0 0.00 0.00 0.00 85 1010.1
20260505072336 11 124 0.0 0.0 0.00 0.00 0.00 86 1010.4
20260505071832 11 124 0.0 0.0 0.00 0.00 0.00 86 1010.1
20260505071329 11 134 0.0 0.0 0.00 0.00 0.00 86 1010.0
20260505070827 11 133 0.0 0.0 0.00 0.00 0.00 86 1010.2
20260505070323 11 123 0.0 0.0 0.00 0.00 0.00 86 1010.1
20260505065819 11 133 0.0 0.0 0.00 0.00 0.00 85 1010.1
20260505065316 11 136 0.0 0.0 0.00 0.00 0.00 85 1010.1
20260505064813 11 135 0.0 0.0 0.00 0.00 0.00 85 1010.2
20260505064310 11 135 0.0 0.0 0.00 0.00 0.00 85 1010.1
20260505063808 11 134 0.0 0.0 0.00 0.00 0.00 85 1010.3
20260505063304 11 141 0.0 0.0 0.00 0.00 0.00 84 1010.5
20260505062800 11 117 0.0 1.6 0.00 0.00 0.00 84 1010.4
20260505062258 11 123 0.0 1.6 0.00 0.00 0.00 84 1010.5
20260505061754 11 136 0.0 0.0 0.00 0.00 0.00 84 1010.5
20260505061252 11 133 0.0 0.0 0.00 0.00 0.00 83 1010.3
20260505060750 11 131 0.0 0.0 0.00 0.00 0.00 84 1010.7
20260505060247 11 133 0.0 0.0 0.00 0.00 0.00 83 1010.4
20260505055742 11 133 0.0 0.0 0.00 0.00 0.00 83 1010.5
20260505055238 11 135 0.0 0.0 0.00 0.00 0.00 83 1010.7
20260505054736 11 134 0.0 0.0 0.00 0.00 0.00 83 1010.3
20260505054234 11 131 0.0 0.0 0.00 0.00 0.00 83 1010.6
20260505053732 11 132 0.0 0.0 0.00 0.00 0.00 83 1010.4
20260505053228 11 129 0.0 0.0 0.00 0.00 0.00 83 1010.5
20260505052725 11 132 0.0 0.0 0.00 0.00 0.00 83 1010.5
20260505052222 11 139 0.0 0.0 0.00 0.00 0.00 82 1010.7
20260505051719 11 134 0.0 0.0 0.00 0.00 0.00 81 1010.7
20260505051217 11 134 0.0 0.0 0.00 0.00 0.00 81 1010.7
20260505050715 11 139 0.0 0.0 0.00 0.00 0.00 81 1010.7
20260505050213 11 134 0.0 0.0 0.00 0.00 0.00 81 1010.7